This demonstration page uses our WeatherBlox Daily Observations layout. Learn more.

Hourly Observations for September 26, 2019

Temp ( °F °C ) Dew Point ( °F °C ) Humidity (%) Winds ( mph kmh ) Pressure ( in mb ) Visibility ( mi km ) Precip ( " mm )
12:15 am 00:15 Clear 50 10 46 7.5 85 85 NE 3 6 30.07 1018 10 16.0934 0 0
12:35 am 00:35 Clear 49 9.3 45 7.4 88 88 NE 3 6 30.08 1019 10 16.0934 0 0
12:55 am 00:55 Clear 49 9.5 45 7.2 86 86 NNE 3 6 30.08 1019 10 16.0934 0 0
1:15 am 01:15 Clear 48 9.1 45 7.1 87 87 ENE 3 6 30.08 1019 10 16.0934 0 0
1:35 am 01:35 Clear 50 9.9 44 6.7 81 81 E 5 7 30.07 1018 10 16.0934 0 0
1:55 am 01:55 Clear 49 9.4 45 7 85 85 Calm 30.07 1018 10 16.0934 0 0
2:15 am 02:15 Clear 49 9.6 44 6.9 83 83 Calm 30.06 1018 10 16.0934 0 0
2:35 am 02:35 Clear 47 8.5 45 7 90 90 N 3 6 30.07 1018 10 16.0934 0 0
2:55 am 02:55 Clear 46 7.9 44 6.6 92 92 Calm 30.08 1019 10 16.0934 0 0
3:15 am 03:15 Clear 47 8.6 44 6.7 88 88 Calm 30.07 1018 10 16.0934 0 0
3:35 am 03:35 Partly Cloudy 47 8.2 44 6.6 90 90 Calm 30.08 1019 10 16.0934 0 0
3:55 am 03:55 Partly Cloudy 47 8.2 44 6.7 90 90 Calm 30.07 1018 10 16.0934 0 0
4:15 am 04:15 Mostly Cloudy 47 8.5 45 7 90 90 Calm 30.08 1018 10 16.0934 0 0
4:35 am 04:35 Partly Cloudy 46 7.6 44 6.7 94 94 Calm 30.07 1018 10 16.0934 0 0
4:55 am 04:55 Mostly Cloudy 47 8.5 45 7.2 92 92 Calm 30.09 1019 10 16.0934 0 0
5:15 am 05:15 Cloudy 48 9 47 8.1 94 94 Calm 30.08 1019 10 16.0934 0 0
5:35 am 05:35 Mostly Cloudy 49 9.2 46 7.8 91 91 Calm 30.08 1019 10 16.0934 0 0
5:55 am 05:55 Mostly Cloudy 48 9 46 7.8 92 92 Calm 30.08 1019 10 16.0934 0 0
6:15 am 06:15 Cloudy 49 9.4 47 8.5 94 94 Calm 30.09 1019 10 16.0934 0 0
6:35 am 06:35 Cloudy 50 10.1 48 8.8 92 92 Calm 30.07 1018 10 16.0934 0 0
6:55 am 06:55 Cloudy 51 10.7 48 9.1 90 90 Calm 30.07 1018 10 16.0934 0 0
7:15 am 07:15 Cloudy 51 10.6 49 9.3 92 92 Calm 30.07 1018 10 16.0934 0 0
7:35 am 07:35 Cloudy 51 10.7 49 9.6 93 93 Calm 30.07 1018 10 16.0934 0 0
7:55 am 07:55 Cloudy 52 11 49 9.6 91 91 Calm 30.05 1018 10 16.0934 0 0
8:15 am 08:15 Cloudy 53 11.8 50 10.1 89 89 Calm 30.06 1018 10 16.0934 0 0
8:35 am 08:35 Cloudy 55 12.6 50 9.9 84 84 Calm 30.05 1018 10 16.0934 0 0
8:55 am 08:55 Cloudy 56 13.1 48 8.7 75 75 Calm 30.04 1017 10 16.0934 0 0
9:15 am 09:15 Cloudy 57 13.7 48 8.7 72 72 SE 3 6 30.01 1016 10 16.0934 0 0
9:35 am 09:35 Cloudy 57 14.1 47 8.3 68 68 SSE 5 7 30.01 1016 10 16.0934 0 0
9:55 am 09:55 Cloudy 58 14.6 46 7.7 64 64 S 6 9 30.01 1016 10 16.0934 0 0
10:15 am 10:15 Mostly Cloudy 59 15.1 45 7.3 60 60 S 6 9 30 1016 10 16.0934 0 0
10:35 am 10:35 Mostly Cloudy 63 17 44 6.5 50 50 S 9 15 29.97 1015 10 16.0934 0 0
10:55 am 10:55 Cloudy 63 17.1 43 6.3 49 49 SSE 8 13 29.96 1015 10 16.0934 0 0
11:15 am 11:15 Cloudy 64 17.6 43 6.2 47 47 SSE 9 15 29.95 1014 10 16.0934 0 0
11:35 am 11:35 Cloudy 65 18.6 43 6.1 44 44 S 9 15 29.94 1014 10 16.0934 0 0
11:55 am 11:55 Cloudy 67 19.5 43 6.3 42 42 S 14 22 29.92 1013 10 16.0934 0 0
12:15 pm 12:15 Cloudy 67 19.6 45 7.1 44 44 SSW 10 17 29.92 1013 10 16.0934 0 0
12:35 pm 12:35 Cloudy 68 19.9 44 6.7 42 42 S 14 22 29.9 1012 10 16.0934 0 0
12:55 pm 12:55 Cloudy 69 20.7 42 5.7 38 38 S 17 28 29.88 1012 10 16.0934 0 0
1:15 pm 13:15 Cloudy 69 20.8 44 6.4 39 39 S 16 26 29.86 1011 10 16.0934 0 0
1:35 pm 13:35 Cloudy 71 21.6 44 6.8 38 38 S 20 31 29.83 1010 10 16.0934 0 0
1:55 pm 13:55 Cloudy 72 22.1 46 7.6 39 39 S 20 31 29.81 1009 10 16.0934 0 0
2:15 pm 14:15 Cloudy 72 22.1 47 8.3 41 41 S 23 37 29.8 1009 10 16.0934 0 0
2:35 pm 14:35 Partly Cloudy 74 23.1 47 8.6 40 40 S 20 31 29.77 1008 10 16.0934 0 0
2:55 pm 14:55 Sunny 74 23.6 48 9.1 40 40 S 22 35 29.75 1007 10 16.0934 0 0
3:15 pm 15:15 Sunny 75 23.9 49 9.3 40 40 S 20 31 29.73 1007 10 16.0934 0 0
3:35 pm 15:35 Sunny 76 24.5 50 10.1 40 40 S 18 30 29.7 1006 10 16.0934 0 0
3:55 pm 15:55 Sunny 76 24.4 51 10.5 42 42 S 21 33 29.69 1005 10 16.0934 0 0
4:15 pm 16:15 Sunny 76 24.5 51 10.7 42 42 S 20 31 29.67 1005 10 16.0934 0 0
4:35 pm 16:35 Sunny 76 24.7 52 11.2 43 43 S 22 35 29.66 1004 10 16.0934 0 0
4:55 pm 16:55 Sunny 77 24.9 53 11.5 43 43 S 17 28 29.65 1004 10 16.0934 0 0
5:15 pm 17:15 Sunny 76 24.6 54 12.4 47 47 S 17 28 29.64 1004 10 16.0934 0 0
5:35 pm 17:35 Sunny 75 24 55 12.9 50 50 S 15 24 29.64 1004 10 16.0934 0 0
5:55 pm 17:55 Sunny 74 23.5 56 13.6 54 54 S 18 30 29.63 1003 10 16.0934 0 0
6:15 pm 18:15 Sunny 73 23 56 13.2 54 54 S 21 33 29.62 1003 10 16.0934 0 0
6:35 pm 18:35 Sunny 72 22.4 55 13 55 55 S 17 28 29.62 1003 10 16.0934 0 0
6:55 pm 18:55 Sunny 71 21.7 56 13.5 60 60 S 14 22 29.62 1003 10 16.0934 0 0
7:15 pm 19:15 Sunny 70 20.9 57 13.8 64 64 S 13 20 29.63 1003 10 16.0934 0 0
7:35 pm 19:35 Clear 69 20.3 57 13.8 66 66 S 16 26 29.63 1003 10 16.0934 0 0
7:55 pm 19:55 Clear 67 19.5 57 13.8 70 70 S 10 17 29.62 1003 10 16.0934 0 0
8:15 pm 20:15 Clear 67 19.2 57 14 72 72 S 13 20 29.63 1004 10 16.0934 0 0
8:35 pm 20:35 Clear 65 18.6 57 14 75 75 S 13 20 29.63 1003 10 16.0934 0 0
8:55 pm 20:55 Clear 65 18.3 58 14.2 77 77 S 10 17 29.63 1003 10 16.0934 0 0
9:15 pm 21:15 Clear 64 18 58 14.5 80 80 S 12 19 29.63 1004 10 16.0934 0 0
9:35 pm 21:35 Clear 64 18 59 15 83 83 S 14 22 29.62 1003 10 16.0934 0 0
9:55 pm 21:55 Clear 64 17.8 60 15.4 86 86 S 16 26 29.63 1003 10 16.0934 0 0
10:15 pm 22:15 Clear 64 17.7 60 15.7 88 88 S 16 26 29.62 1003 10 16.0934 0 0
10:35 pm 22:35 Clear 64 17.6 61 16 90 90 S 14 22 29.61 1003 10 16.0934 0 0
10:55 pm 22:55 Clear 64 17.6 61 16.1 91 91 S 16 26 29.61 1003 10 16.0934 0 0
11:15 pm 23:15 Clear 64 17.6 61 16.3 92 92 S 16 26 29.61 1003 10 16.0934 0 0
11:35 pm 23:35 Clear 64 17.7 62 16.6 93 93 S 14 22 29.61 1003 10 16.0934 0 0
11:55 pm 23:55 Clear 64 17.6 62 16.7 95 95 S 15 24 29.6 1002 10 16.0934 0 0

Powered by AerisWeather